Погода в Монтиньи-ле-Бретонё

Франция     48°46′27″N   2°02′25″E
темп.,
°C
ветер,
м/с
пор.,
м/с
влажн.,
%
обл.,
%
осадки,
мм/ч
давл.,
гПа
погр.,
м
14 апреля, ср
ср1423:00+5св37522 0.0 1032307
02:00+4св25540 0.0 1032168
05:00+2ссв25570 0.0 1031146
08:00+2ссв25605 0.0 1031171
11:00+8св46434 0.0 10311484
14:00+10ссв463394 0.0 10302324
17:00+11ссв5632100 0.0 10282433
20:00+9ссв46435 0.0 10281108
15 апреля, чт
чт1523:00+6ссв510605 0.0 1030647
02:00+3ссв49715 0.0 1030429
05:00+2ссв37790 0.0 1030275
08:00+2ссв49803 0.0 1030371
11:00+6св57575 0.0 10301038
14:00+10св4637100 0.0 10282426
17:00+10св4635100 0.0 10262371
20:00+8ссв475612 0.3 1026708
16 апреля, пт
пт1623:00+5ссв38703 0.0 1027379
02:00+4ссв39760 0.0 1027322
05:00+3ссв37795 0.0 1027220
08:00+3ссв39745 0.0 1027346
11:00+8св58475 0.0 10271358
14:00+9св6842100 0.0 10261895
17:00+9св6946100 0.0 10252060
20:00+8св585681 0.1 10251192
17 апреля, сб
сб1723:00+6ссв39665 0.0 1026485
02:00+4ссв4107936 0.0 1026382
05:00+3с39855 0.0 1026281
08:00+3с310825 0.0 1026324
11:00+9ссв57575 0.0 1026785
14:00+12ссв57435 0.0 10241653
17:00+13ссв57365 0.0 10231793
20:00+10ссв47495 0.0 1024969
18 апреля, вс
вс1823:00+7с37635 0.0 1025298
02:00+6с37803 0.0 1025255
05:00+4с37855 0.0 1025199
08:00+5с26785 0.0 1025184
11:00+11ссв35517 0.0 1025964
14:00+14ссв344349 0.0 10241683
17:00+14с444378 0.0 10231838
20:00+12ссв355494 0.0 1023875